{"data":{"norad_id":46328,"epoch":"2026-05-25T01:33:17.494848Z","epoch_age_seconds":79653,"freshness":"FRESH","line1":"1 46328U 20062D   26145.06478582  .00905989  48230-3  89954-3 0  9999","line2":"2 46328  53.0265 288.4547 0012582 290.4769  69.4913 16.10526394317290","mean_motion":16.10526394,"eccentricity":0.0012582,"inclination_deg":53.0265,"raan_deg":288.4547,"arg_perigee_deg":290.4769,"mean_anomaly_deg":69.4913,"bstar":0.00089954,"rev_number":31729,"period_min":89.41176036386,"perigee_km":237.06591375513,"apogee_km":253.73338137507,"semimajor_km":6623.5366475651,"source":"CELESTRAK","updated_at":"2026-05-25T13:38:16.470149Z"}}